Tracking 29510 objects as of 16-Sep-2024
HD Live streaming from Space Station
objects crossing your sky now

FENGYUN 1C DEB

Track FENGYUN 1C DEB now!
10-day predictions


NORAD ID: 31931
Int'l Code: 1999-025CMG
Perigee: 791.7 km
Apogee: 1,430.5 km
Inclination: 97.8 °
Period: 107.3 minutes
Semi major axis: 7482 km
RCS: 0.0158 m2 (small)
Launch date: May 10, 1999
Source: People's Republic of China (PRC)
Launch site: Taiyaun Space Center, China (TSC)

Note: This is SATELLITE DEBRIS
Your satellite tracking list
Your tracking list is empty




NASA's NSSDC Master Catalog

Two Line Element Set (TLE):
1 31931U 99025CMG 24259.39364274  .00001888  00000-0  20127-2 0  9991
2 31931  97.8102 305.4495 0426894   7.8631 352.8925 13.41419422591419
Source of the keplerian elements: AFSPC